Retour au catalogue

DEAR-5

ActifRadio amateurVLEO
NORAD 67070·PAYLOAD·🇨🇳 China

Lancé Dec 13, 2025 depuis Jiuquan Satellite Launch Center

Loading…

Prochains Passages (prochaines 24 heures)

TLE

VieillissantSource: Space-Track

Époque: Sep 12, 2026, 13:23 UTC

1 67070U 25296B   26255.55778079  .00004872  00000-0  18600-3 0  9991
2 67070  41.3618 337.5261 0037980  59.3048 301.1511 15.26792809 41565

Suivez DEAR-5 en temps réel avec AllMySat

Download on the App Store